Location: Bouchavesnes-Bergen
(49.9859°N, 2.9203°E)
Time: 04:38:52
(UTC+00:00)

SeaSat 1 - Pass Details

Date: 09 March 2021
Orbit: 744 x 747 km, 108.0° (Epoch: 11 April)

Event Time Altitude Azimuth Distance (km) Brightness Sun altitude
Rises 04:54:41 0° 155° (SSE) 3,174 5.9 -13.7°
Reaches altitude 10° 04:56:56 10° 158° (SSE) 2,255 5.1 -13.3°
Maximum altitude 05:01:50 70° 242° (WSW) 797 2.4 -12.5°
Drops below altitude 10° 05:06:46 10° 326° (NNW) 2,273 4.7 -11.7°
Sets 05:09:04 0° 329° (NNW) 3,202 5.5 -11.4°
